R9YAAM-13 Weather Reports


Display with metric or nautical units.
time (UTC)temp
F
wind
direction
speed
MPH
gust
MPH
rain 1hr
in
rain 24hr
in
rain mn
in
humidity
%
barometer
mb
20260509074630 81 0 0.0 0.0 0.00 0.00 0.00 35 983.0
20260509073530 81 0 0.0 0.0 0.00 0.00 0.00 35 983.1
20260509072530 81 0 0.0 0.0 0.00 0.00 0.00 34 983.3
20260509071530 80 0 0.0 0.0 0.00 0.00 0.00 36 983.6
20260509070430 79 0 0.0 0.0 0.00 0.00 0.00 36 983.9
20260509065430 78 0 0.0 0.0 0.00 0.00 0.00 36 984.1
20260509064430 79 0 0.0 0.0 0.00 0.00 0.00 37 984.2
20260509063330 79 0 0.0 0.0 0.00 0.00 0.00 37 984.5
20260509062230 78 0 0.0 0.0 0.00 0.00 0.00 37 984.6
20260509061245 77 0 0.0 0.0 0.00 0.00 0.00 36 984.8
20260509060130 78 0 0.0 0.0 0.00 0.00 0.00 39 984.8
20260509055130 78 0 0.0 0.0 0.00 0.00 0.00 40 985.2
20260509054130 77 0 0.0 0.0 0.00 0.00 0.00 40 985.3
20260509053130 76 0 0.0 0.0 0.00 0.00 0.00 43 985.4
20260509052130 76 0 0.0 0.0 0.00 0.00 0.00 42 985.5
20260509051030 75 0 0.0 0.0 0.00 0.00 0.00 46 985.8
20260509044830 72 0 0.0 0.0 0.00 0.00 0.00 50 986.2
20260509043730 73 0 0.0 0.0 0.00 0.00 0.00 47 986.3
20260509042729 73 0 0.0 0.0 0.00 0.00 0.00 48 986.2
20260509041730 73 0 0.0 0.0 0.00 0.00 0.00 50 986.3
20260509040730 72 0 0.0 0.0 0.00 0.00 0.00 52 986.4
20260509035630 71 0 0.0 0.0 0.00 0.00 0.00 55 986.6
20260509034630 71 0 0.0 0.0 0.00 0.00 0.00 54 986.6
20260509033630 70 0 0.0 0.0 0.00 0.00 0.00 56 986.9
20260509032530 71 0 0.0 0.0 0.00 0.00 0.00 54 986.9
20260509031430 69 0 0.0 0.0 0.00 0.00 0.00 55 987.0
20260509030430 69 0 0.0 0.0 0.00 0.00 0.00 54 987.0
20260509025330 70 0 0.0 0.0 0.00 0.00 0.00 54 987.1
20260509024330 68 0 0.0 0.0 0.00 0.00 0.00 59 987.1
20260509023330 68 0 0.0 0.0 0.00 0.00 0.00 58 987.2
20260509022330 68 0 0.0 0.0 0.00 0.00 0.00 60 987.3
20260509021330 65 0 0.0 0.0 0.00 0.00 0.00 66 987.3
20260509020345 64 0 0.0 0.0 0.00 0.00 0.00 67 987.4
20260509015230 65 0 0.0 0.0 0.00 0.00 0.00 67 987.4
20260509014230 64 0 0.0 0.0 0.00 0.00 0.00 73 987.5
20260509013145 63 0 0.0 0.0 0.00 0.00 0.00 74 987.6
20260509012130 63 0 0.0 0.0 0.00 0.00 0.00 78 987.6
20260509011030 61 0 0.0 0.0 0.00 0.00 0.00 81 987.6
20260509010030 60 0 0.0 0.0 0.00 0.00 0.00 81 987.5
20260509004930 60 0 0.0 0.0 0.00 0.00 0.00 83 987.4
20260509003930 59 0 0.0 0.0 0.00 0.00 0.00 85 987.4
20260509002830 58 0 0.0 0.0 0.00 0.00 0.00 85 987.4
20260509001830 58 0 0.0 0.0 0.00 0.00 0.00 86 987.4
20260509000730 58 0 0.0 0.0 0.00 0.00 0.00 87 987.3
20260508235729 58 0 0.0 0.0 0.00 0.00 0.00 88 987.2
20260508234630 58 0 0.0 0.0 0.00 0.00 0.00 88 987.2
20260508233630 57 0 0.0 0.0 0.00 0.00 0.00 88 987.1
20260508232630 56 0 0.0 0.0 0.00 0.00 0.00 88 987.1
20260508231700 56 0 0.0 0.0 0.00 0.00 0.00 88 987.1
20260508230630 56 0 0.0 0.0 0.00 0.00 0.00 88 987.2
20260508225632 56 0 0.0 0.0 0.00 0.00 0.00 87 987.2
20260508224529 55 0 0.0 0.0 0.00 0.00 0.00 87 987.1
20260508223430 55 0 0.0 0.0 0.00 0.00 0.00 86 987.1
20260508222430 55 0 0.0 0.0 0.00 0.00 0.00 86 987.1
20260508221429 56 0 0.0 0.0 0.00 0.00 0.00 86 987.3
20260508220430 56 0 0.0 0.0 0.00 0.00 0.00 86 987.3
20260508215330 56 0 0.0 0.0 0.00 0.00 0.00 85 987.4
20260508214330 56 0 0.0 0.0 0.00 0.00 0.00 85 987.4
20260508213330 56 0 0.0 0.0 0.00 0.00 0.00 85 987.4
20260508212330 56 0 0.0 0.0 0.00 0.00 0.00 84 987.5
20260508211330 57 0 0.0 0.0 0.00 0.00 0.00 84 987.5
20260508210230 57 0 0.0 0.0 0.00 0.00 0.00 84 987.4
20260508205230 57 0 0.0 0.0 0.00 0.00 0.00 83 987.4
20260508204230 58 0 0.0 0.0 0.00 0.00 0.00 83 987.5
20260508203130 58 0 0.0 0.0 0.00 0.00 0.00 82 987.7
20260508202130 58 0 0.0 0.0 0.00 0.00 0.00 81 987.6
20260508201130 58 0 0.0 0.0 0.00 0.00 0.00 81 987.7
20260508200030 59 0 0.0 0.0 0.00 0.00 0.00 81 987.6
20260508195030 59 0 0.0 0.0 0.00 0.00 0.00 81 987.6
20260508193930 59 0 0.0 0.0 0.00 0.00 0.00 81 987.6
20260508192830 58 0 0.0 0.0 0.00 0.00 0.00 81 987.6
20260508191730 58 0 0.0 0.0 0.00 0.00 0.00 79 987.6
20260508190730 59 0 0.0 0.0 0.00 0.00 0.00 79 987.7
20260508185630 60 0 0.0 0.0 0.00 0.00 0.00 78 987.8
20260508184630 60 0 0.0 0.0 0.00 0.00 0.00 78 987.8
20260508183630 60 0 0.0 0.0 0.00 0.00 0.00 77 987.9
20260508182530 60 0 0.0 0.0 0.00 0.00 0.00 78 987.8
20260508181530 60 0 0.0 0.0 0.00 0.00 0.00 77 987.8
20260508180445 60 0 0.0 0.0 0.00 0.00 0.00 77 987.8
20260508175430 60 0 0.0 0.0 0.00 0.00 0.00 76 987.8
20260508174330 61 0 0.0 0.0 0.00 0.00 0.00 76 987.9
20260508173329 61 0 0.0 0.0 0.00 0.00 0.00 75 987.9
20260508172330 61 0 0.0 0.0 0.00 0.00 0.00 74 987.8
20260508171230 61 0 0.0 0.0 0.00 0.00 0.00 74 987.7
20260508170230 62 0 0.0 0.0 0.00 0.00 0.00 73 987.8
20260508165130 62 0 0.0 0.0 0.00 0.00 0.00 71 987.8
20260508164130 63 0 0.0 0.0 0.00 0.00 0.00 71 987.8
20260508163130 63 0 0.0 0.0 0.00 0.00 0.00 73 988.0
20260508162130 62 0 0.0 0.0 0.00 0.00 0.00 77 988.1
20260508161129 61 0 0.0 0.0 0.00 0.00 0.00 77 988.0
20260508160030 61 0 0.0 0.0 0.00 0.00 0.00 76 988.0
20260508155030 62 0 0.0 0.0 0.00 0.00 0.00 73 988.0
20260508153929 63 0 0.0 0.0 0.00 0.00 0.00 71 988.0
20260508152830 63 0 0.0 0.0 0.00 0.00 0.00 71 988.0
20260508151830 64 0 0.0 0.0 0.00 0.00 0.00 70 988.0
20260508150844 64 0 0.0 0.0 0.00 0.00 0.00 70 988.0
20260508145745 65 0 0.0 0.0 0.00 0.00 0.00 69 987.9
20260508144729 65 0 0.0 0.0 0.00 0.00 0.00 69 987.9
20260508143630 65 0 0.0 0.0 0.00 0.00 0.00 68 987.8
20260508142630 65 0 0.0 0.0 0.00 0.00 0.00 68 987.6
20260508141630 66 0 0.0 0.0 0.00 0.00 0.00 67 987.6
20260508140630 66 0 0.0 0.0 0.00 0.00 0.00 66 987.6
20260508135629 66 0 0.0 0.0 0.00 0.00 0.00 65 987.5
20260508134629 67 0 0.0 0.0 0.00 0.00 0.00 64 987.4
20260508133530 67 0 0.0 0.0 0.00 0.00 0.00 64 987.4
20260508132530 68 0 0.0 0.0 0.00 0.00 0.00 62 987.3
20260508131530 68 0 0.0 0.0 0.00 0.00 0.00 62 987.3
20260508130429 68 0 0.0 0.0 0.00 0.00 0.00 61 987.3
20260508125429 68 0 0.0 0.0 0.00 0.00 0.00 60 987.3
20260508124329 69 0 0.0 0.0 0.00 0.00 0.00 58 987.4
20260508123329 69 0 0.0 0.0 0.00 0.00 0.00 60 987.4
20260508122330 69 0 0.0 0.0 0.00 0.00 0.00 58 987.2
20260508121245 69 0 0.0 0.0 0.00 0.00 0.00 57 987.3
20260508120130 70 0 0.0 0.0 0.00 0.00 0.00 56 987.3
20260508115030 71 0 0.0 0.0 0.00 0.00 0.00 55 987.3
20260508113930 72 0 0.0 0.0 0.00 0.00 0.00 53 987.2
20260508112930 72 0 0.0 0.0 0.00 0.00 0.00 53 987.3
20260508111929 74 0 0.0 0.0 0.00 0.00 0.00 52 987.2
20260508110930 72 0 0.0 0.0 0.00 0.00 0.00 52 987.2
20260508105830 74 0 0.0 0.0 0.00 0.00 0.00 51 987.2
20260508104829 73 0 0.0 0.0 0.00 0.00 0.00 51 987.3
20260508103745 74 0 0.0 0.0 0.00 0.00 0.00 49 987.2
20260508102730 75 0 0.0 0.0 0.00 0.00 0.00 50 987.2
20260508101630 73 0 0.0 0.0 0.00 0.00 0.00 52 987.3
20260508100629 74 0 0.0 0.0 0.00 0.00 0.00 52 987.4
20260508095630 73 0 0.0 0.0 0.00 0.00 0.00 52 987.5
20260508094530 73 0 0.0 0.0 0.00 0.00 0.00 53 987.6
20260508093530 73 0 0.0 0.0 0.00 0.00 0.00 56 987.7
20260508092430 73 0 0.0 0.0 0.00 0.00 0.00 56 987.7
20260508091429 72 0 0.0 0.0 0.00 0.00 0.00 58 987.8
20260508090330 72 0 0.0 0.0 0.00 0.00 0.00 58 987.9
20260508085330 72 0 0.0 0.0 0.00 0.00 0.00 59 988.0
20260508084330 71 0 0.0 0.0 0.00 0.00 0.00 61 988.0
20260508083329 71 0 0.0 0.0 0.00 0.00 0.00 65 988.0
20260508082346 70 0 0.0 0.0 0.00 0.00 0.00 68 988.1
20260508081329 68 0 0.0 0.0 0.00 0.00 0.00 72 988.2
20260508080330 65 0 0.0 0.0 0.00 0.00 0.00 81 988.2
20260508075230 63 0 0.0 0.0 0.00 0.00 0.00 84 988.3